When you browse on this site, cookies collect data to enhance your experience and personalize the content and advertising you see.
Visit our Privacy Policy to learn more. By continuing to use the site, you agree to this use of cookies and data.
  • In Österreich
  • Länderverzeichnis
  • Für 7 Tage
  • Wassertemperatur
  • Wetterkarte
  • News
  • Widgets
  • user-avatar
    Anmelden

    Stündliche Wetter Jambol

    Heute, 20 Oktober, Sonntag

    Zeit Temperatur Niederschläge Wind Luftdruck Luftfeuchtigkeit
    00:00 +16°C° 0 mm 1 m/S 753 mmHg 92%
    01:00 +16°C° 0 mm 1 m/S 753 mmHg 93%
    02:00 +16°C° 0 mm 1 m/S 753 mmHg 94%
    03:00 +16°C° 0 mm 1 m/S 754 mmHg 94%
    04:00 +16°C° 0 mm 1 m/S 754 mmHg 94%
    05:00 +15°C° 0 mm 1 m/S 754 mmHg 94%
    06:00 +15°C° 0 mm 0 m/S 754 mmHg 92%
    07:00 +16°C° 0 mm 0 m/S 754 mmHg 89%
    08:00 +16°C° 0 mm 0 m/S 754 mmHg 85%
    09:00 +18°C° 0 mm 0 m/S 754 mmHg 76%
    10:00 +22°C° 0 mm 1 m/S 755 mmHg 67%
    11:00 +24°C° 0 mm 1 m/S 755 mmHg 59%
    12:00 +25°C° 0 mm 1 m/S 754 mmHg 54%
    13:00 +26°C° 0 mm 1 m/S 754 mmHg 50%
    14:00 +26°C° 0 mm 1 m/S 754 mmHg 46%
    15:00 +25°C° 0 mm 1 m/S 754 mmHg 50%
    16:00 +24°C° 0 mm 1 m/S 754 mmHg 53%
    17:00 +24°C° 0 mm 2 m/S 754 mmHg 56%
    18:00 +21°C° 0 mm 2 m/S 754 mmHg 63%
    19:00 +19°C° 0 mm 2 m/S 754 mmHg 70%
    20:00 +18°C° 0 mm 2 m/S 754 mmHg 78%
    21:00 +17°C° 0 mm 2 m/S 755 mmHg 80%
    22:00 +17°C° 0 mm 2 m/S 755 mmHg 82%
    23:00 +16°C° 0 mm 1 m/S 755 mmHg 84%

    Morgen, 21 Oktober, Montag

    Zeit Temperatur Niederschläge Wind Luftdruck Luftfeuchtigkeit
    00:00 +16°C° 0 mm 1 m/S 755 mmHg 85%
    01:00 +16°C° 0 mm 1 m/S 755 mmHg 86%
    02:00 +15°C° 0 mm 1 m/S 755 mmHg 87%
    03:00 +15°C° 0 mm 1 m/S 755 mmHg 88%
    04:00 +15°C° 0 mm 1 m/S 755 mmHg 88%
    05:00 +14°C° 0 mm 0 m/S 755 mmHg 88%
    06:00 +15°C° 0 mm 1 m/S 755 mmHg 85%
    07:00 +16°C° 0 mm 1 m/S 755 mmHg 82%
    08:00 +16°C° 0 mm 1 m/S 755 mmHg 79%
    09:00 +19°C° 0 mm 1 m/S 755 mmHg 71%
    10:00 +21°C° 0 mm 1 m/S 756 mmHg 62%
    11:00 +23°C° 0 mm 1 m/S 756 mmHg 54%
    12:00 +24°C° 0 mm 1 m/S 755 mmHg 49%
    13:00 +25°C° 0 mm 2 m/S 755 mmHg 45%
    14:00 +26°C° 0 mm 2 m/S 755 mmHg 41%
    15:00 +25°C° 0 mm 2 m/S 755 mmHg 46%
    16:00 +24°C° 0 mm 2 m/S 755 mmHg 50%
    17:00 +22°C° 0 mm 3 m/S 754 mmHg 55%
    18:00 +20°C° 0 mm 2 m/S 755 mmHg 63%
    19:00 +19°C° 0 mm 2 m/S 755 mmHg 71%
    20:00 +17°C° 0 mm 2 m/S 755 mmHg 79%
    21:00 +16°C° 0 mm 1 m/S 755 mmHg 81%
    22:00 +16°C° 0 mm 1 m/S 755 mmHg 84%
    23:00 +16°C° 0 mm 1 m/S 755 mmHg 86%

    übermorgen, 22 Oktober, Dienstag

    Zeit Temperatur Niederschläge Wind Luftdruck Luftfeuchtigkeit
    00:00 +15°C° 0 mm 1 m/S 755 mmHg 86%
    01:00 +15°C° 0 mm 1 m/S 755 mmHg 87%
    02:00 +15°C° 0 mm 1 m/S 755 mmHg 88%
    03:00 +15°C° 0 mm 1 m/S 755 mmHg 88%
    04:00 +13°C° 0 mm 0 m/S 755 mmHg 88%
    05:00 +13°C° 0 mm 0 m/S 755 mmHg 88%
    06:00 +14°C° 0 mm 0 m/S 755 mmHg 85%
    07:00 +14°C° 0 mm 0 m/S 755 mmHg 82%
    08:00 +15°C° 0 mm 0 m/S 756 mmHg 79%
    09:00 +19°C° 0 mm 1 m/S 756 mmHg 67%
    10:00 +21°C° 0 mm 1 m/S 756 mmHg 55%
    11:00 +23°C° 0 mm 2 m/S 756 mmHg 43%
    12:00 +24°C° 0 mm 2 m/S 756 mmHg 39%
    13:00 +25°C° 0 mm 3 m/S 755 mmHg 36%
    14:00 +26°C° 0 mm 3 m/S 755 mmHg 33%
    15:00 +25°C° 0 mm 3 m/S 755 mmHg 38%
    16:00 +24°C° 0 mm 3 m/S 755 mmHg 42%
    17:00 +22°C° 0 mm 3 m/S 755 mmHg 47%
    18:00 +20°C° 0 mm 2 m/S 755 mmHg 54%
    19:00 +19°C° 0 mm 2 m/S 755 mmHg 62%
    20:00 +17°C° 0 mm 2 m/S 755 mmHg 69%
    21:00 +17°C° 0 mm 2 m/S 756 mmHg 72%
    22:00 +16°C° 0 mm 1 m/S 756 mmHg 74%
    23:00 +15°C° 0 mm 1 m/S 756 mmHg 77%

    23 Oktober, Mittwoch

    Zeit Temperatur Niederschläge Wind Luftdruck Luftfeuchtigkeit
    00:00 +15°C° 0 mm 1 m/S 756 mmHg 77%
    01:00 +15°C° 0 mm 1 m/S 756 mmHg 76%
    02:00 +13°C° 0 mm 0 m/S 755 mmHg 76%
    03:00 +13°C° 0 mm 0 m/S 755 mmHg 74%
    04:00 +13°C° 0 mm 0 m/S 755 mmHg 72%
    05:00 +13°C° 0 mm 0 m/S 755 mmHg 70%
    06:00 +13°C° 0 mm 0 m/S 755 mmHg 65%
    07:00 +14°C° 0 mm 0 m/S 755 mmHg 61%
    08:00 +15°C° 0 mm 0 m/S 755 mmHg 56%
    09:00 +19°C° 0 mm 1 m/S 755 mmHg 50%
    10:00 +21°C° 0 mm 1 m/S 755 mmHg 44%
    11:00 +23°C° 0 mm 2 m/S 755 mmHg 37%
    12:00 +24°C° 0 mm 2 m/S 755 mmHg 36%
    13:00 +25°C° 0 mm 2 m/S 754 mmHg 34%
    14:00 +26°C° 0 mm 3 m/S 754 mmHg 32%
    15:00 +25°C° 0 mm 2 m/S 754 mmHg 37%
    16:00 +23°C° 0 mm 2 m/S 754 mmHg 41%
    17:00 +21°C° 0 mm 2 m/S 753 mmHg 46%
    18:00 +20°C° 0 mm 2 m/S 754 mmHg 54%
    19:00 +18°C° 0 mm 2 m/S 754 mmHg 61%
    20:00 +16°C° 0 mm 2 m/S 754 mmHg 69%
    21:00 +16°C° 0 mm 1 m/S 754 mmHg 72%
    22:00 +16°C° 0 mm 1 m/S 754 mmHg 74%
    23:00 +15°C° 0 mm 1 m/S 754 mmHg 77%

    24 Oktober, Donnerstag

    Zeit Temperatur Niederschläge Wind Luftdruck Luftfeuchtigkeit
    00:00 +15°C° 0 mm 1 m/S 754 mmHg 77%
    01:00 +13°C° 0 mm 0 m/S 754 mmHg 78%
    02:00 +13°C° 0 mm 0 m/S 753 mmHg 78%
    03:00 +13°C° 0 mm 0 m/S 753 mmHg 78%
    04:00 +13°C° 0 mm 0 m/S 753 mmHg 78%
    05:00 +12°C° 0 mm 0 m/S 753 mmHg 77%
    06:00 +13°C° 0 mm 0 m/S 753 mmHg 74%
    07:00 +14°C° 0 mm 0 m/S 753 mmHg 70%
    08:00 +14°C° 0 mm 0 m/S 753 mmHg 66%
    09:00 +16°C° 0 mm 0 m/S 753 mmHg 58%
    10:00 +20°C° 0 mm 1 m/S 753 mmHg 50%
    11:00 +22°C° 0 mm 1 m/S 753 mmHg 43%
    12:00 +23°C° 0 mm 1 m/S 753 mmHg 39%
    13:00 +24°C° 0 mm 2 m/S 752 mmHg 36%
    14:00 +25°C° 0 mm 2 m/S 752 mmHg 33%
    15:00 +23°C° 0 mm 2 m/S 752 mmHg 37%
    16:00 +21°C° 0 mm 2 m/S 751 mmHg 40%
    17:00 +20°C° 0 mm 2 m/S 751 mmHg 44%
    18:00 +19°C° 0 mm 2 m/S 751 mmHg 51%
    19:00 +18°C° 0 mm 2 m/S 751 mmHg 58%
    20:00 +16°C° 0 mm 2 m/S 751 mmHg 64%
    21:00 +16°C° 0 mm 1 m/S 751 mmHg 68%
    22:00 +15°C° 0 mm 1 m/S 752 mmHg 71%
    23:00 +15°C° 0 mm 1 m/S 752 mmHg 75%

    25 Oktober, Freitag

    Zeit Temperatur Niederschläge Wind Luftdruck Luftfeuchtigkeit
    00:00 +14°C° 0 mm 1 m/S 751 mmHg 77%
    01:00 +13°C° 0 mm 0 m/S 751 mmHg 79%
    02:00 +13°C° 0 mm 0 m/S 751 mmHg 81%
    03:00 +12°C° 0 mm 0 m/S 751 mmHg 82%
    04:00 +12°C° 0 mm 0 m/S 751 mmHg 82%
    05:00 +12°C° 0 mm 0 m/S 751 mmHg 83%
    06:00 +13°C° 0 mm 0 m/S 751 mmHg 79%
    07:00 +13°C° 0 mm 0 m/S 751 mmHg 76%
    08:00 +14°C° 0 mm 0 m/S 752 mmHg 72%
    09:00 +16°C° 0 mm 0 m/S 752 mmHg 63%
    10:00 +18°C° 0 mm 0 m/S 752 mmHg 53%
    11:00 +22°C° 0 mm 1 m/S 752 mmHg 44%
    12:00 +23°C° 0 mm 1 m/S 752 mmHg 40%
    13:00 +24°C° 0 mm 1 m/S 751 mmHg 36%
    14:00 +24°C° 0 mm 2 m/S 751 mmHg 31%
    15:00 +23°C° 0 mm 2 m/S 751 mmHg 35%
    16:00 +21°C° 0 mm 2 m/S 751 mmHg 38%
    17:00 +20°C° 0 mm 2 m/S 751 mmHg 41%
    18:00 +19°C° 0 mm 2 m/S 751 mmHg 49%
    19:00 +18°C° 0 mm 1 m/S 751 mmHg 56%
    20:00 +16°C° 0 mm 1 m/S 752 mmHg 64%
    21:00 +15°C° 0 mm 1 m/S 752 mmHg 67%
    22:00 +15°C° 0 mm 1 m/S 752 mmHg 70%
    23:00 +14°C° 0 mm 1 m/S 752 mmHg 73%
    Mehr zeigen